Regional Weather Roundup
Issued by NWS Huntsville, AL

Home | Current Version | Previous Version | Text Only | Print | Product List | Glossary On
Versions: 1 2 3 4 5 6 7 8 9 10 11 12 13 14 15 16 17 18 19 20 21 22 23 24 25 26 27 28 29 30 31 32 33 34 35 36 37 38 39 40 41 42 43 44 45 46 47 48 49 50
000
ASUS44 KHUN 260410
RWRHUN

WEATHER ROUNDUP FOR THE TENNESSEE VALLEY
NATIONAL WEATHER SERVICE HUNTSVILLE AL
1000 PM CST SUN JAN 25 2015

ALZ001>004-260500-
NORTHWEST ALABAMA

CITY           SKY/WX    TMP DP  RH WIND       PRES   REMARKS
COURTLAND HCN    N/A     44  32  63 W8          N/A
RUSSELLVILLE     N/A     43 N/A N/A MISG        N/A
SHOALS AIRPORT CLOUDY    45  39  81 W9        29.81R
SHOALS TVA RES   N/A     43 N/A N/A MISG        N/A
$$

ALZ005>007-016-260500-
NORTH CENTRAL ALABAMA

CITY           SKY/WX    TMP DP  RH WIND       PRES   REMARKS
DECATUR AP     PTCLDY    43  40  89 W8        29.79R
HUNTSVILLE AP  PTCLDY    43  38  82 W9        29.78R
MERIDIANVILLE  MOCLDY    43  36  75 W7        29.76R
REDSTONE ARSN  CLOUDY    43  40  88 W8        29.77S
VINEMONT AP    MOCLDY    42  37  84 CALM      29.80S
$$

ALZ008>010-260500-
NORTHEAST ALABAMA

CITY           SKY/WX    TMP DP  RH WIND       PRES   REMARKS
ALBERTVILLE    CLOUDY    43  41  93 W8        29.76S
FORT PAYNE     CLOUDY    45  37  76 SW13      29.72F
SCOTTSBORO AP  LGT RAIN  48  39  71 NW13G18   29.76R
VALLEY HEAD      N/A     46 N/A N/A MISG        N/A
$$

TNZ076-096-097-260500-
SOUTHEASTERN MIDDLE TENNESSEE

CITY           SKY/WX    TMP DP  RH WIND       PRES   REMARKS
TULLAHOMA      CLEAR     39  37  93 W7        29.73S WCI  34
WINCHESTER     CLOUDY    43  39  87 W6        29.73S
$$

...SURROUNDING SITES...

CITY           SKY/WX    TMP DP  RH WIND       PRES   REMARKS
ATLANTA        LGT RAIN  47  42  83 N10       29.74F
ANNISTON       MOCLDY    45  42  89 SW8       29.79R
BIRMINGHAM     CLOUDY    45  41  86 W6        29.83F
CHATTANOOGA    RAIN      47  42  83 NW3       29.72R
CORINTH        CLOUDY    45  37  76 NW16G23   29.83R
DALTON         CLOUDY    46  41  81 CALM      29.72F
GADSDEN        CLOUDY    46  37  71 W8        29.78S
GOLDEN TRNGL   CLOUDY    48  39  71 NW12G18   29.85R
HALEYVILLE     CLOUDY    42  41  97 VRB5      29.82R
JACKSON TN     CLOUDY    43  36  76 NW17G23   29.83R
LEWISBURG      CLOUDY    45  41  86 VRB7      29.73S
MEMPHIS        CLOUDY    44  35  70 NW17      29.90R
MURFREESBORO   CLOUDY    46  41  83 W9        29.71S
NASHVILLE      LGT RAIN  45  41  86 W13G18    29.72R
OXFORD MS      CLOUDY    43  32  65 NW17G24   29.91R
ROME           CLOUDY    47  43  86 SW6       29.73S
SAVANNAH       CLOUDY    43  39  87 NW9       29.82R
TUPELO         CLOUDY    45  37  73 NW13G22   29.86R
TUSCALOOSA     PTCLDY    44  41  89 CALM      29.85S
$$

...GULF COAST WEATHER...

CITY           SKY/WX    TMP DP  RH WIND       PRES   REMARKS
GULFPORT       PTCLDY    55  41  59 W7        29.91R
PASCAGOULA     CLEAR     52  42  69 W3        29.90R
MOBILE         PTCLDY    50  39  66 W5        29.89R
GULF SHORES    CLEAR     56  46  69 W16G25    29.88R
PENSACOLA      CLEAR     57  45  64 W8G17     29.87R
DESTIN         CLEAR     61  47  59 W9G20     29.86S
PANAMA CITY    CLEAR     62  53  72 W21G28    29.87F
APPALACHICOLA  MOCLDY    66  52  60 W15G23    29.88S
$$




USA.gov is the U.S. government's official web portal to all federal, state and local government web resources and services.